Theta_e
292 288 286 286 289 290 289 291 291 286 286 285 282 282 284 283 284 285 285 287 286 288 287 289 288 288 290 292 293 290 286 287 288 289 290 291 291 290 290 291 291 291 293 291 291 291 292 293 297 301 302 302 304 304 303 303 303 302 301 300 299 299 298 298 297 297 298 297 296 297 295 292 291 291 291 291 291 291 292 292 293 292 293 293 292 292
290 287 287 290 292 289 291 289 286 286 286 288 284 285 285 283 286 286 289 288 287 289 283 284 285 287 289 291 292 290 286 288 289 289 290 292 292 292 291 291 291 292 289 289 290 290 290 293 296 300 300 301 302 303 302 302 302 302 301 300 298 299 299 298 298 298 298 298 298 296 293 292 292 291 290 289 290 290 290 291 291 290 291 291 290 290
288 288 291 292 288 288 287 287 287 288 287 285 287 283 284 285 284 287 286 286 287 287 287 285 286 289 290 291 292 291 291 292 292 292 294 294 293 292 292 292 292 290 291 290 291 290 291 292 296 299 300 301 303 302 302 302 302 301 300 300 298 298 298 299 299 298 296 294 294 293 291 290 289 289 289 289 289 289 288 288 289 289 289 289 288 287
285 285 292 289 288 289 286 285 287 287 286 285 282 284 285 282 286 284 284 287 288 288 284 283 285 288 290 292 292 293 293 292 292 292 292 293 293 293 294 293 292 291 291 290 290 290 290 292 295 298 299 301 302 300 300 301 301 301 300 299 298 298 298 298 297 294 293 292 291 291 290 289 288 287 288 288 288 288 288 287 287 287 286 285 285 285
289 288 289 289 289 290 287 285 286 286 286 283 286 284 283 285 285 287 285 285 285 287 284 286 287 287 290 291 292 290 287 290 293 293 292 292 292 294 293 291 293 293 291 291 290 290 290 291 294 298 299 301 301 300 300 301 301 301 299 299 299 298 296 295 294 292 291 290 289 289 288 289 287 287 287 287 286 286 287 286 284 283 283 284 284 284
288 289 288 288 287 288 286 285 286 287 284 282 283 288 289 287 287 284 284 287 283 281 282 285 281 278 280 283 286 289 287 290 291 291 293 294 294 293 292 293 292 292 292 292 291 291 291 292 294 297 299 300 301 301 301 301 301 301 300 299 298 297 295 293 292 292 291 290 289 288 287 287 286 285 286 286 285 285 285 283 282 283 283 283 283 283
288 289 290 288 287 286 287 285 284 288 286 284 285 287 290 288 286 286 284 285 280 279 285 283 282 280 282 291 290 285 285 291 292 291 293 293 294 292 293 293 293 292 290 290 291 291 291 291 293 296 299 300 300 300 300 300 299 300 300 298 297 295 294 293 292 292 292 290 290 290 291 289 288 286 285 285 285 284 283 283 281 281 282 282 282 282
288 289 288 286 286 286 285 285 287 289 287 283 284 283 286 286 285 285 284 285 282 280 283 285 283 282 283 289 290 286 288 290 291 293 294 295 295 294 293 293 292 292 291 291 291 291 291 292 293 296 299 300 301 300 299 299 298 298 298 297 295 294 293 292 292 292 292 291 291 292 291 290 288 287 285 285 284 284 283 282 281 281 281 281 281 282
289 287 287 287 286 285 287 286 286 290 288 284 286 284 284 286 284 284 285 282 282 281 282 283 283 283 280 281 282 285 288 289 292 294 294 295 295 294 294 293 292 291 290 291 290 290 291 291 293 296 299 300 300 299 299 298 296 296 296 295 294 293 292 292 292 292 292 292 292 291 290 287 286 285 284 285 285 283 282 281 280 280 280 280 280 280
287 289 290 291 289 287 286 284 288 292 288 286 284 285 284 283 282 281 281 285 280 279 281 282 283 279 284 282 286 282 285 287 291 294 296 295 293 293 293 292 290 288 288 290 291 291 291 292 293 296 298 299 299 298 298 296 294 294 294 294 293 292 292 291 291 292 291 291 291 290 289 286 284 284 284 284 283 282 280 280 280 279 280 280 280 280
289 291 291 290 289 289 286 285 286 290 288 288 286 288 285 281 280 279 279 279 279 276 284 285 284 285 281 282 288 287 287 289 292 293 293 290 289 289 289 289 288 287 288 289 289 290 291 290 292 294 297 298 298 296 296 294 293 293 293 293 292 292 291 291 291 291 290 289 289 289 288 286 284 284 283 282 281 280 280 280 279 279 280 279 279 279
290 289 290 289 290 288 289 288 286 285 286 289 287 283 287 285 279 278 272 276 275 278 281 280 283 285 280 279 283 288 287 287 291 293 294 291 290 289 287 287 287 287 287 287 288 288 289 289 290 292 295 296 296 295 295 293 292 292 293 292 291 290 290 290 290 289 289 288 288 288 287 286 285 284 283 282 281 280 280 280 280 279 279 279 279 279
285 287 285 289 290 291 286 288 287 286 289 287 286 288 280 275 273 272 271 274 273 277 278 277 282 281 283 288 285 287 289 291 291 292 293 291 292 292 289 287 286 286 285 287 288 288 289 290 290 291 294 294 294 294 294 292 292 292 292 291 290 288 289 289 289 288 287 287 286 287 286 285 285 285 284 283 281 281 281 280 280 279 279 279 279 278
283 283 286 288 289 289 292 288 284 284 287 286 288 283 278 273 272 271 269 264 269 275 278 280 282 281 282 285 292 294 296 295 294 293 292 292 293 293 292 288 285 286 287 287 288 288 289 290 290 292 294 294 294 295 294 292 292 292 291 291 290 288 288 288 288 287 286 286 287 287 286 286 285 284 284 283 282 281 281 281 280 280 280 279 280 279
276 280 284 289 287 290 293 294 292 287 287 289 285 289 284 277 272 269 267 273 275 274 276 277 277 276 278 284 287 291 293 289 291 292 291 290 290 290 286 284 284 285 285 287 288 288 289 290 290 291 293 294 294 295 294 292 292 291 291 290 290 288 288 288 287 286 286 286 286 286 286 286 285 284 283 282 282 281 281 280 280 280 280 280 279 279
283 283 280 289 287 291 292 290 290 287 286 285 284 285 280 284 278 279 272 269 269 271 273 272 280 280 284 285 287 286 286 287 287 289 289 292 293 287 286 287 287 286 286 286 287 288 288 289 290 290 292 293 294 294 294 293 291 291 291 289 290 289 287 287 287 286 286 286 285 285 285 285 285 284 283 282 282 280 281 280 280 280 279 279 279 279
280 278 283 287 288 291 292 288 290 289 285 284 287 284 285 283 285 277 273 273 272 270 278 273 280 282 284 289 293 295 290 290 288 287 287 290 291 285 288 288 286 286 286 286 287 288 288 288 289 290 291 292 293 294 294 293 292 291 290 288 289 289 288 287 286 286 286 285 285 284 284 284 283 283 281 281 280 280 280 280 279 279 278 278 279 279
282 279 284 285 287 287 286 286 286 286 287 285 281 285 285 284 285 282 277 272 271 274 276 275 279 280 279 283 282 287 287 291 291 291 291 290 286 287 291 290 286 286 287 287 287 287 288 288 289 289 290 291 292 293 293 293 292 291 290 289 288 288 287 286 286 286 285 285 284 284 283 283 282 282 281 281 280 280 280 279 279 278 278 278 279 280
287 282 282 283 284 286 286 289 289 287 288 286 283 286 287 281 279 280 274 274 268 270 274 275 276 278 283 285 286 286 285 289 290 291 290 291 292 292 293 289 283 284 285 286 286 286 287 287 288 289 290 290 291 292 292 292 291 290 289 289 288 287 287 286 286 286 285 285 285 284 283 282 281 281 281 280 280 280 280 279 279 278 279 279 279 279
288 282 281 285 284 286 287 287 284 285 288 287 288 287 286 284 276 277 281 274 276 270 268 276 273 283 283 285 286 291 290 290 290 288 288 291 292 293 290 287 285 286 286 286 286 287 287 287 288 288 289 289 290 290 291 290 289 289 289 288 288 287 286 286 285 285 284 284 284 284 283 282 281 281 280 280 280 280 280 279 279 279 278 279 279 279
286 283 278 281 285 286 284 286 286 287 285 284 285 283 286 281 283 281 280 277 277 266 267 270 278 285 284 287 288 292 292 291 289 290 290 291 292 289 288 287 286 286 286 286 286 286 286 287 287 287 288 289 288 289 289 289 289 289 289 289 288 287 285 285 285 284 284 283 283 282 281 281 281 280 280 280 280 280 280 279 279 279 279 279 278 278
283 283 281 281 280 284 284 284 286 289 292 289 289 286 289 284 280 278 278 280 272 276 277 269 279 287 285 285 292 291 292 291 290 292 292 291 291 287 286 286 286 286 286 286 286 286 286 286 286 286 286 287 287 287 287 287 287 287 288 289 288 287 285 285 284 283 283 283 283 282 281 281 281 281 280 280 280 279 279 279 279 278 278 278 278 278
291 284 282 279 283 286 285 287 283 283 285 286 286 287 290 289 286 280 276 276 274 279 276 275 269 285 288 288 289 289 288 288 288 288 290 291 288 288 287 285 285 286 286 286 286 286 285 286 286 286 287 287 287 287 287 286 287 287 287 287 287 287 286 285 284 283 283 283 282 282 281 281 281 280 280 280 279 279 279 278 278 278 278 278 277 277
294 288 285 285 284 281 283 284 283 283 287 287 285 282 286 286 285 284 282 281 283 275 276 274 272 285 287 285 283 283 282 282 282 283 290 289 287 288 286 284 284 285 284 284 284 284 285 285 285 285 286 286 286 286 286 286 286 286 286 287 287 286 286 285 284 283 283 282 282 282 281 281 281 280 280 279 279 279 278 278 278 278 278 278 277 277
288 287 288 284 281 282 283 284 285 285 285 282 282 283 286 288 287 283 282 279 278 280 283 280 277 285 287 282 282 285 285 286 286 286 283 287 289 287 285 283 283 284 283 283 284 284 284 284 284 285 286 286 287 287 287 286 286 285 286 286 286 286 286 285 284 283 282 282 282 281 281 281 280 280 280 279 279 278 278 279 279 279 278 278 277 278
291 289 288 282 280 278 277 278 281 282 282 282 279 283 286 288 286 284 284 281 282 284 283 283 283 289 286 285 288 286 284 287 287 285 283 285 288 288 285 283 283 283 284 284 283 283 283 284 285 285 285 286 286 287 287 286 286 285 286 286 287 286 285 285 284 283 282 282 282 281 281 281 280 280 280 280 279 279 279 279 279 279 278 278 278 278
287 290 290 288 286 284 286 285 284 286 283 283 284 285 286 287 289 289 287 285 283 285 282 286 288 289 288 287 287 289 285 287 290 287 289 289 287 286 284 284 283 284 284 284 284 284 283 283 284 285 285 286 286 286 287 286 286 285 285 285 286 286 286 285 284 283 282 282 282 281 281 281 281 281 280 280 280 280 280 279 279 279 278 278 278 277
285 287 290 290 290 290 291 289 285 289 285 287 287 285 287 287 288 287 287 285 290 283 282 288 289 287 290 291 289 287 288 286 287 286 287 287 287 287 286 283 286 282 282 283 283 283 284 284 284 284 284 285 286 286 286 286 286 286 285 285 285 286 285 285 284 283 282 282 282 282 281 282 281 281 281 281 280 280 280 279 279 279 278 278 278 278
288 287 290 290 289 291 292 291 286 288 288 288 288 287 286 287 287 286 287 290 289 285 285 290 289 287 290 293 293 291 291 292 290 290 290 288 286 284 283 283 284 284 283 283 284 284 284 284 284 284 284 285 285 285 286 286 286 285 285 285 284 284 285 285 284 284 283 283 282 282 282 282 282 282 281 281 280 280 279 279 279 279 278 278 278 278
290 287 289 291 289 290 290 291 287 287 286 285 287 288 288 287 287 288 289 290 290 288 290 291 290 289 293 294 294 294 292 291 292 288 286 288 290 289 284 284 285 285 284 284 285 285 285 285 285 284 284 284 284 285 285 286 285 285 285 284 284 284 284 284 284 284 284 283 283 283 283 282 282 282 281 281 280 280 280 279 279 279 278 278 278 278
290 288 292 288 287 287 290 291 288 286 287 286 284 286 288 288 288 289 289 290 290 289 290 290 289 290 295 297 292 293 293 294 292 289 293 294 293 291 289 287 287 286 286 286 286 285 285 285 285 284 284 284 284 285 285 286 286 285 285 284 284 284 284 284 284 284 284 284 284 284 283 282 282 282 281 281 280 280 280 279 279 279 278 278 277 277
290 286 288 288 286 286 289 289 288 285 284 285 285 285 286 286 285 287 286 289 288 287 289 288 287 288 295 292 296 290 289 291 292 294 293 292 292 291 290 289 289 288 288 288 287 286 285 285 285 284 284 284 284 284 285 285 285 285 284 285 284 284 284 283 284 284 284 284 284 284 283 282 282 281 281 281 280 280 280 279 279 278 278 277 277 277
288 288 288 287 285 285 289 289 288 284 285 283 285 287 288 288 289 289 290 290 290 291 288 286 287 294 296 293 291 287 289 291 294 295 294 294 293 291 291 291 291 290 290 290 289 287 286 286 285 285 285 285 285 285 285 285 285 285 285 284 284 283 283 283 284 284 284 284 284 283 283 282 282 281 281 281 280 280 280 279 279 278 277 277 277 276
288 289 288 289 284 286 288 288 286 284 278 281 293 295 293 289 288 286 287 289 291 291 291 294 294 296 296 295 293 294 289 291 294 296 297 298 297 291 289 289 290 291 291 290 289 288 287 286 286 286 286 285 285 285 285 285 285 285 285 285 284 283 283 283 283 284 283 283 283 283 282 282 282 281 281 281 281 280 279 279 278 278 278 278 277 276
288 288 288 289 286 285 288 285 282 278 281 291 291 291 296 295 293 290 291 292 291 292 292 292 293 294 296 296 296 296 296 294 292 292 292 292 292 293 292 290 290 290 291 291 289 287 287 286 285 285 285 284 284 284 284 284 284 284 284 284 283 283 283 283 283 283 283 282 283 283 282 282 282 281 281 281 281 280 279 279 278 278 278 277 277 276
288 288 289 287 288 287 284 284 278 279 288 288 289 289 286 292 295 292 290 292 293 293 292 292 294 295 296 297 297 295 291 289 287 288 290 289 286 291 291 293 292 291 290 291 291 289 287 286 286 286 285 285 284 284 284 284 283 283 283 283 283 282 283 282 282 282 283 283 283 283 283 282 282 282 282 281 280 280 279 279 279 278 278 277 277 277
291 289 288 286 289 282 284 284 284 288 287 289 289 289 288 289 288 290 287 290 294 295 294 293 294 295 296 296 296 295 288 287 289 295 290 288 288 289 292 293 292 291 290 290 288 289 288 287 286 286 285 284 284 283 283 283 283 283 281 281 281 281 281 282 282 282 283 283 283 283 283 283 282 282 281 281 280 279 279 279 278 278 278 277 277 277
294 289 288 286 284 287 284 283 283 283 280 286 293 288 290 291 293 294 292 289 294 294 296 294 294 294 294 295 294 292 289 289 290 294 291 290 292 292 287 287 286 286 286 286 285 285 284 284 284 284 285 284 283 283 283 283 283 282 281 282 282 282 282 282 282 283 283 283 283 283 283 283 282 282 281 281 280 280 280 280 279 279 279 278 277 277
291 293 289 287 285 284 283 281 282 280 284 290 291 287 290 291 293 289 289 286 294 294 293 293 292 293 294 294 294 289 288 287 290 294 290 289 286 286 288 287 284 283 283 284 285 284 283 284 285 284 284 284 283 283 283 283 283 283 282 282 282 282 282 282 283 283 283 284 284 283 282 282 282 282 282 281 281 281 280 280 280 279 279 278 278 277
288 288 288 285 284 285 284 282 281 286 285 288 286 284 285 289 292 291 280 282 294 290 290 291 293 294 294 294 294 288 289 288 290 295 286 287 285 283 285 284 283 282 282 282 284 284 284 284 284 283 283 283 283 283 283 284 284 283 283 282 282 282 282 283 283 284 284 283 283 283 283 283 283 283 282 282 281 281 281 280 279 278 277 277 277 276
284 286 286 283 285 285 285 284 285 286 287 287 283 283 286 292 292 283 279 288 289 291 290 293 294 295 295 293 291 289 290 295 291 283 280 282 283 280 279 279 280 281 282 282 283 284 284 284 285 284 284 284 283 284 284 284 284 283 283 283 282 282 283 283 283 283 283 283 283 283 283 283 283 282 282 282 281 281 279 279 279 278 277 276 276 276
284 286 285 286 284 284 285 283 284 287 289 287 281 286 289 290 282 283 291 285 289 285 289 292 293 294 293 292 290 292 292 279 279 281 281 281 281 279 279 279 279 280 280 280 282 283 283 283 282 282 282 283 284 285 285 285 284 283 282 282 282 283 283 283 283 283 283 283 283 282 282 282 282 282 282 281 280 279 278 278 278 278 277 275 274 273
284 283 281 283 285 285 284 283 282 278 288 288 287 286 287 287 290 291 285 282 284 285 288 287 289 289 287 289 288 289 279 280 280 280 279 278 279 280 279 280 280 281 281 281 281 280 283 282 281 281 280 282 283 284 285 285 284 283 282 282 283 283 283 283 283 283 282 282 282 281 281 281 280 280 280 279 279 278 277 276 275 274 273 273 272 272
288 284 284 285 288 282 282 280 282 288 286 290 292 288 289 292 288 286 288 286 281 282 285 286 285 286 285 288 286 281 279 279 278 279 279 279 279 279 279 279 279 279 278 278 278 280 280 280 279 279 278 281 283 284 285 285 284 283 282 282 281 281 281 282 282 282 281 281 280 279 279 279 278 278 277 277 277 277 276 274 274 272 272 272 272 271
288 287 289 286 289 287 285 288 288 285 288 291 294 293 295 295 286 285 285 287 285 283 281 283 286 282 283 285 283 281 279 279 280 280 281 280 280 280 280 280 280 280 280 279 278 277 279 280 279 278 278 279 280 281 283 283 283 281 281 280 279 280 280 279 279 279 278 278 277 277 277 276 276 276 276 276 277 276 275 273 272 272 270 271 271 271
286 288 285 287 287 289 287 287 286 283 285 289 288 282 283 289 283 283 284 285 284 283 284 286 284 283 281 282 282 278 282 280 279 279 279 279 279 278 277 277 276 276 276 276 276 276 277 278 278 278 276 273 272 274 273 276 280 279 277 274 275 276 276 276 276 277 276 276 276 276 275 275 274 275 275 275 276 276 276 274 273 273 271 271 271 271
286 284 286 287 286 287 284 288 285 287 287 288 291 286 280 280 285 283 283 284 285 282 283 281 284 284 282 281 284 282 280 280 280 279 279 278 278 277 278 278 277 277 278 277 275 275 277 278 277 276 276 275 270 270 271 271 271 273 274 273 274 274 275 275 276 276 275 275 275 274 275 275 274 273 273 273 273 274 274 274 273 273 271 271 271 271
283 285 287 286 285 287 287 288 286 287 285 288 289 289 286 284 282 282 283 281 282 283 284 283 283 282 280 281 282 281 280 280 280 279 278 278 278 277 277 277 276 275 273 272 272 274 276 277 277 274 274 274 270 270 270 270 270 269 271 271 273 273 274 275 275 275 274 273 273 273 273 274 271 273 273 273 273 273 272 271 273 273 272 271 271 271
284 287 281 285 287 288 287 285 282 283 284 285 285 285 286 285 284 282 280 281 282 283 282 283 283 282 282 283 280 281 280 279 280 280 279 277 277 277 277 277 276 275 273 274 272 273 277 275 275 274 274 272 269 270 270 268 266 266 271 272 271 273 274 274 272 272 271 270 271 271 271 273 273 273 273 271 270 271 272 273 272 273 273 270 270 272
286 283 282 285 282 284 286 290 285 284 284 288 286 286 286 284 283 283 281 281 282 283 282 283 281 280 281 280 281 282 282 279 278 279 279 279 279 278 277 276 275 274 273 271 272 271 272 272 273 273 272 270 268 270 270 267 265 265 267 268 270 273 274 273 272 271 270 270 271 270 269 269 268 267 269 270 270 269 267 270 275 272 270 268 273 276
287 287 285 285 285 285 290 291 288 291 291 288 290 289 287 283 282 281 282 282 282 284 284 283 280 279 279 279 279 282 282 280 279 279 279 279 279 278 278 277 276 275 274 273 273 272 272 271 271 271 271 270 268 269 269 268 265 265 266 268 270 273 273 273 272 269 268 269 268 268 269 268 267 268 268 268 267 268 268 266 265 276 277 276 274 276
Wind_Speed
0 3 4 8 9 10 6 10 8 4 5 5 3 2 3 3 5 4 4 5 1 0 8 9 8 9 12 12 12 3 3 4 8 11 12 11 10 10 11 13 14 12 15 3 7 8 8 9 7 7 7 6 5 6 7 7 7 7 8 7 6 6 8 7 7 7 8 8 7 5 5 6 3 3 3 5 3 3 5 7 7 6 6 6 7 6
3 2 8 12 10 7 8 4 5 5 3 2 2 2 5 3 8 4 1 2 1 4 4 1 4 10 14 13 13 3 2 9 12 13 14 16 13 12 13 15 14 12 1 4 5 7 7 7 8 8 7 7 9 8 8 9 8 8 8 9 8 6 6 6 6 7 6 4 5 7 5 7 5 4 2 5 4 4 5 6 7 6 5 6 6 6
1 8 11 10 3 3 2 4 2 4 2 2 3 2 1 7 5 8 3 2 1 2 9 5 7 11 12 13 11 9 12 10 10 13 16 14 13 12 13 14 11 6 9 6 8 7 8 9 9 9 9 8 8 8 9 9 9 9 8 8 8 8 8 6 5 5 5 3 5 5 6 5 6 5 3 4 4 4 5 5 6 5 5 6 6 5
1 6 17 2 5 5 2 3 4 2 1 3 2 1 8 3 1 6 1 2 1 4 2 0 5 10 11 12 14 16 13 9 8 12 15 11 13 14 16 13 11 13 10 11 11 12 10 10 9 9 10 9 8 8 8 9 11 9 8 8 9 8 7 7 5 5 6 7 8 8 7 5 4 6 5 7 6 7 7 8 5 5 3 4 5 4
11 3 2 5 6 7 4 2 5 5 7 3 5 5 3 3 6 7 4 2 1 1 2 4 8 8 9 13 9 4 3 6 14 12 11 14 12 15 9 6 11 14 12 12 10 9 11 12 14 14 11 9 10 10 10 10 10 8 10 9 10 8 8 7 8 8 8 9 10 9 9 8 10 7 5 6 6 5 5 5 5 3 3 3 5 5
11 7 3 5 2 3 4 3 6 8 4 3 6 11 9 6 7 4 3 4 7 4 2 2 6 5 4 5 11 8 6 5 7 9 15 16 12 9 12 17 9 9 9 14 15 16 15 13 9 9 12 12 11 12 11 9 9 9 9 9 9 8 7 8 9 10 9 10 12 10 9 8 6 7 5 7 9 7 6 5 1 4 3 3 4 4
6 0 5 5 5 5 4 4 4 6 7 1 6 9 11 7 3 1 1 3 3 3 2 1 1 10 1 9 8 4 4 11 8 8 12 11 11 8 12 12 10 11 9 7 7 9 11 12 12 12 13 14 13 10 8 8 8 10 10 10 9 9 8 7 9 9 8 8 8 11 13 13 12 11 2 4 4 5 5 5 4 3 4 3 4 4
3 1 3 3 4 4 5 4 5 11 6 5 2 3 4 4 5 5 3 5 6 1 4 0 1 6 10 12 6 3 6 10 11 14 13 14 13 11 10 10 10 10 10 11 12 12 12 13 16 18 18 14 13 10 9 9 8 10 11 11 10 7 8 8 9 10 8 9 9 6 4 8 10 11 11 8 6 4 4 6 4 4 4 3 3 5
7 5 5 5 3 4 8 6 5 10 8 3 0 6 5 5 5 3 4 3 0 3 11 2 1 2 6 6 2 1 5 7 13 14 13 13 10 9 11 12 10 7 8 9 10 13 15 17 17 14 13 12 10 10 11 10 9 8 9 10 9 9 8 8 10 10 8 6 7 7 7 7 5 7 8 8 5 6 4 6 4 4 4 4 3 3
2 4 8 8 7 8 4 1 7 13 6 1 5 7 7 7 6 4 3 3 1 2 13 6 5 3 15 4 4 2 2 7 11 14 15 9 6 8 9 7 5 4 5 7 10 11 12 12 11 9 7 9 10 9 9 7 7 8 9 10 11 10 8 8 10 9 8 7 6 7 7 11 9 8 7 8 11 7 5 6 5 4 5 5 4 3
1 3 3 3 7 3 5 3 1 0 2 8 4 7 5 8 4 3 6 2 2 4 13 7 10 8 10 2 9 7 7 9 9 8 9 5 6 6 7 7 4 4 5 7 7 7 8 6 7 7 11 11 9 8 9 9 9 9 10 10 11 11 9 9 10 10 10 7 7 8 9 12 14 12 12 10 7 8 6 7 6 6 5 4 5 4
0 2 1 2 3 4 4 4 4 2 3 5 2 3 4 2 6 2 4 4 2 10 1 3 5 7 11 5 9 7 5 4 8 10 11 6 7 6 4 4 4 4 5 5 5 5 6 7 7 7 10 11 11 10 11 9 9 10 10 10 11 9 10 10 9 9 9 7 7 6 9 12 15 15 12 13 13 10 10 8 9 6 6 4 4 3
4 6 2 4 3 9 3 8 3 3 0 4 6 6 4 4 5 3 2 2 6 9 1 2 3 2 17 12 5 8 10 11 10 11 10 7 9 9 6 5 4 4 4 6 6 7 8 11 13 13 12 11 11 13 13 12 10 10 10 12 12 11 10 11 11 10 9 9 8 9 9 9 12 14 15 12 12 11 11 9 10 9 8 7 6 5
8 1 2 3 2 4 8 8 3 1 4 5 8 6 5 0 1 6 5 2 7 7 4 1 1 8 2 7 16 22 21 16 11 9 9 9 13 11 7 5 3 4 6 7 8 9 11 12 12 13 13 13 12 13 13 11 11 10 10 11 12 12 11 10 11 10 9 9 9 9 9 10 10 11 12 12 12 11 9 8 9 9 9 9 9 8
5 7 8 8 6 5 9 12 12 7 10 10 3 10 9 8 7 4 5 5 7 5 2 5 1 8 5 4 1 10 10 6 7 8 7 8 9 7 5 4 3 4 5 5 8 10 11 11 12 13 13 13 12 13 13 11 11 10 11 12 12 12 11 12 13 10 10 9 8 7 8 9 9 10 10 9 9 10 10 7 8 7 6 7 7 7
13 9 5 6 2 9 13 3 7 6 3 3 2 5 3 11 6 6 4 3 1 3 5 2 7 5 7 3 5 5 7 7 6 9 6 12 12 5 6 7 7 6 5 7 8 8 8 9 10 10 11 12 11 13 12 13 12 12 12 12 12 13 12 12 12 11 11 10 8 9 10 9 9 8 7 7 6 7 7 8 8 8 7 6 6 5
2 6 1 3 4 7 6 3 2 5 8 5 6 8 6 2 5 2 3 2 1 2 12 3 9 7 8 8 12 13 7 10 6 5 5 11 10 4 8 8 5 5 6 7 10 9 10 8 10 10 11 10 11 12 14 14 13 14 12 11 12 12 11 12 12 11 11 10 10 10 9 10 9 9 10 10 10 9 8 7 7 7 6 5 6 6
8 6 1 2 4 1 0 0 3 4 4 9 5 8 2 2 4 4 6 2 4 4 9 2 8 6 2 13 3 1 6 13 10 11 11 11 5 6 11 9 4 7 9 8 6 6 6 7 9 8 8 9 11 12 12 13 11 11 11 12 12 11 13 11 11 11 11 12 11 10 10 9 10 10 9 9 11 9 9 7 6 6 7 7 6 6
4 7 1 1 0 3 2 1 2 2 2 6 5 5 7 4 3 2 4 4 1 5 7 6 3 8 9 11 1 3 5 9 11 13 9 10 10 12 14 5 3 4 5 7 8 8 8 9 9 10 11 10 9 9 10 10 11 9 8 10 11 13 13 13 10 9 9 10 10 10 11 12 9 7 8 7 8 9 10 10 9 8 7 6 6 7
1 5 3 1 2 1 1 4 9 4 1 1 3 4 1 2 2 5 7 3 5 5 1 9 3 13 7 8 10 11 12 10 7 3 6 12 12 12 7 3 5 7 8 7 8 8 8 9 10 11 12 12 13 12 10 10 9 11 10 11 10 8 9 11 12 12 12 10 9 10 9 8 8 9 8 8 10 10 10 10 9 9 8 8 6 6
3 3 7 1 3 2 3 6 11 13 10 2 3 4 1 0 2 4 1 4 4 4 3 2 10 13 6 8 10 11 11 11 9 8 8 9 11 7 5 5 6 6 6 7 7 8 8 9 9 9 8 8 6 6 7 9 12 11 10 12 12 13 11 12 12 12 11 10 9 10 11 11 9 9 8 9 9 10 9 8 7 7 6 6 6 6
3 3 9 2 0 6 8 3 3 8 14 15 16 14 16 10 5 4 8 2 1 2 5 2 13 17 5 3 10 10 10 9 9 9 9 9 8 3 4 6 5 5 6 7 7 7 8 7 8 7 6 6 7 8 10 8 8 9 11 11 11 11 11 12 10 10 10 10 10 12 11 11 9 9 8 9 9 8 8 7 8 7 7 7 5 6
8 4 5 7 9 10 3 0 1 2 3 3 3 9 9 9 7 6 6 4 2 3 3 4 4 23 4 8 7 6 6 6 5 7 9 8 5 5 4 3 4 5 6 7 7 6 6 7 8 9 10 10 11 10 9 8 10 10 10 10 10 11 12 11 11 10 9 10 11 11 10 10 10 9 10 11 9 8 7 7 6 6 7 7 6 5
4 2 2 4 1 2 3 3 1 1 1 3 4 1 4 9 6 6 5 7 9 2 2 1 0 17 2 0 2 3 2 3 2 5 10 6 5 7 4 4 5 5 4 3 4 4 6 6 7 8 9 10 10 10 11 10 9 9 10 11 11 13 12 12 10 10 10 10 10 11 11 11 9 11 10 10 8 8 7 6 6 6 7 6 7 8
5 4 8 7 2 1 2 1 2 1 1 2 1 2 5 5 4 2 5 2 2 9 10 9 10 20 1 3 3 1 2 5 5 6 5 6 7 6 3 3 4 4 4 4 6 6 6 7 10 11 11 12 11 11 10 11 11 10 11 11 12 12 12 11 10 10 10 10 12 11 11 11 10 10 10 9 8 8 7 7 8 7 8 7 7 7
8 8 11 10 12 13 11 12 15 10 9 3 2 4 6 10 9 4 7 3 8 7 11 9 12 17 1 2 3 4 3 6 6 6 5 7 8 6 4 4 5 5 6 6 6 6 10 11 9 9 11 11 11 12 12 12 12 11 11 12 11 12 11 11 10 11 11 10 11 11 12 11 10 11 11 10 9 9 9 8 8 8 6 7 8 7
3 5 12 13 14 16 16 6 2 12 5 8 8 11 9 9 12 11 5 5 13 11 7 14 19 23 7 2 5 7 5 8 8 5 6 9 10 8 5 5 4 6 7 9 9 8 5 7 12 11 11 12 12 12 12 12 12 12 11 11 11 11 12 11 11 11 11 11 11 11 12 11 11 10 10 9 9 8 8 8 8 8 8 7 8 8
3 4 12 16 19 20 18 14 8 11 11 15 16 12 15 13 14 15 14 17 16 2 14 16 21 16 24 14 8 7 8 8 8 6 7 7 8 7 6 4 4 3 4 4 5 8 12 12 10 11 12 12 12 11 11 11 12 13 13 13 11 11 11 10 12 12 11 11 10 11 12 11 10 10 10 9 9 9 8 8 8 8 7 7 8 8
6 8 9 10 15 17 19 17 11 7 11 14 17 17 17 17 14 17 20 24 15 14 21 23 11 15 25 21 12 12 11 11 11 12 11 7 3 3 3 4 5 6 5 7 11 11 11 13 13 13 12 12 10 13 13 12 12 11 10 10 11 11 13 12 12 12 12 11 12 12 11 10 9 9 10 10 10 10 10 9 8 8 7 7 7 6
3 6 6 12 15 16 17 18 10 15 7 5 12 17 18 19 21 24 26 27 24 17 17 20 19 17 19 21 12 15 10 9 9 4 1 3 7 8 5 5 7 7 9 11 12 13 13 13 11 12 12 12 14 14 13 13 13 13 12 12 11 11 10 11 13 13 13 13 12 10 10 11 10 11 10 11 11 11 10 10 9 9 9 8 7 6
5 7 12 4 7 12 18 17 8 12 11 11 6 8 14 19 23 27 26 23 19 17 17 21 21 22 24 19 6 6 8 9 7 5 8 11 10 8 9 9 8 9 11 11 9 11 11 10 10 10 12 15 15 17 15 14 12 11 11 12 12 12 10 10 12 13 13 13 12 11 11 11 11 11 12 12 10 9 11 11 10 9 8 8 7 8
7 3 1 2 9 12 14 16 14 5 4 7 7 9 15 20 22 21 18 15 13 19 23 21 18 21 26 3 10 6 5 8 10 11 11 10 10 10 9 11 11 11 11 12 12 9 8 12 12 14 16 16 15 14 13 13 12 11 13 11 10 9 9 10 11 12 12 12 11 11 12 11 11 11 12 11 11 11 10 10 10 10 10 9 9 8
5 4 6 4 10 12 18 16 12 5 3 8 15 20 26 24 17 11 15 17 22 22 16 15 22 24 24 3 2 3 6 10 12 14 12 13 12 10 13 12 11 11 11 11 11 11 12 14 15 16 14 12 14 15 14 12 12 14 13 12 11 10 11 12 12 12 11 11 11 12 11 11 12 12 11 10 10 10 10 11 10 10 11 12 9 7
6 10 9 7 9 9 17 15 4 6 14 16 19 27 23 20 17 15 18 22 22 14 14 19 20 21 18 14 13 13 10 11 14 15 14 13 12 9 9 9 10 11 11 10 9 10 10 9 10 12 14 14 13 13 11 12 13 10 9 10 10 12 11 12 11 11 11 10 11 11 10 10 10 10 10 9 10 10 11 11 12 11 9 8 8 9
12 11 12 8 7 10 11 1 4 17 16 17 4 1 11 17 17 23 25 21 17 16 16 17 20 22 26 17 12 15 12 12 8 9 10 10 8 7 7 10 13 13 13 12 9 9 11 11 9 9 10 10 9 9 10 10 9 9 9 10 11 11 12 11 11 10 10 11 10 10 10 11 11 10 10 11 11 11 11 11 9 10 9 9 10 11
10 13 9 9 7 2 3 8 12 13 5 5 3 5 1 5 15 15 17 20 19 18 20 23 27 28 24 23 18 11 6 6 5 9 13 8 5 7 10 13 12 10 11 12 13 11 9 10 14 14 13 8 10 10 11 11 10 11 11 10 12 11 11 11 11 11 10 11 11 12 12 13 12 12 12 11 11 11 12 11 11 11 9 8 7 6
12 6 7 9 8 11 9 14 18 4 9 6 5 7 12 11 9 15 16 19 22 22 23 24 27 26 23 21 19 10 1 2 8 18 7 8 11 13 15 13 9 9 10 9 7 9 9 9 9 8 6 8 9 10 10 9 10 9 9 10 9 10 10 11 11 12 12 11 10 10 10 11 11 11 10 11 11 11 11 11 10 9 7 8 8 9
11 14 7 10 6 11 12 12 7 8 15 15 21 1 3 6 7 9 10 15 12 15 22 22 23 22 19 19 18 7 3 5 14 23 6 13 16 13 7 7 5 5 5 5 3 3 4 4 4 6 9 9 9 9 8 10 11 10 10 11 10 11 11 11 13 12 11 11 11 11 11 11 10 11 10 10 11 11 9 8 7 9 8 10 11 11
12 13 12 16 7 7 11 13 11 11 13 11 13 5 6 8 11 6 7 14 15 15 13 14 13 16 19 19 20 5 5 9 17 19 4 10 5 6 10 8 4 3 3 4 5 5 5 6 7 8 8 9 9 9 10 11 12 12 12 11 11 12 12 13 12 11 12 12 10 9 9 9 9 10 11 11 11 11 11 11 11 9 8 8 7 8
16 11 8 12 13 11 10 12 11 6 9 8 4 3 4 9 13 9 6 10 19 4 9 11 15 21 22 20 15 8 13 13 15 16 2 8 5 4 5 5 3 2 1 1 1 4 5 6 8 6 9 10 10 10 12 12 12 11 11 11 10 12 13 11 10 9 7 7 8 9 10 10 11 11 12 12 11 9 10 8 7 8 8 8 7 7
9 8 12 18 14 15 17 11 5 6 4 6 4 3 6 9 12 7 15 15 4 7 9 16 20 22 20 16 9 10 14 18 9 2 2 4 6 4 3 2 2 2 5 5 5 6 7 6 8 9 9 7 9 10 11 11 10 10 9 10 10 10 8 7 8 8 9 9 9 9 10 9 11 12 10 10 10 9 7 7 8 8 9 9 7 7
8 9 5 8 13 13 12 14 12 7 5 5 1 13 10 8 6 15 8 1 9 5 11 15 16 17 13 12 10 14 10 1 4 2 3 2 4 3 3 3 4 4 3 3 4 5 6 6 6 6 6 6 9 10 10 10 10 8 9 8 9 8 8 8 8 9 8 9 9 9 9 9 8 9 9 7 8 8 8 7 8 8 8 6 6 7
11 8 8 10 6 5 4 10 6 11 5 9 14 2 3 8 10 6 2 2 3 5 9 7 10 8 5 8 8 7 3 2 3 4 3 3 5 5 5 4 5 5 6 5 5 4 7 8 7 7 6 6 7 8 8 10 10 8 8 9 7 6 7 8 8 8 9 8 9 9 9 9 10 9 7 8 9 9 9 7 7 6 7 7 7 8
7 8 4 8 9 10 12 11 9 5 4 14 17 10 11 15 4 5 8 5 3 5 8 7 8 8 7 6 7 4 4 5 1 4 5 3 4 4 4 4 4 4 5 4 4 5 7 9 7 8 5 5 6 7 8 10 10 8 9 7 6 7 7 8 8 8 8 8 8 8 8 8 8 7 7 8 8 8 8 7 7 7 7 7 8 7
8 10 8 10 8 10 8 9 3 4 12 14 11 9 12 13 3 5 2 4 7 6 4 4 7 5 6 7 5 8 5 5 6 7 8 9 6 6 7 6 6 6 6 7 6 5 5 11 11 9 8 5 5 5 6 6 10 9 8 6 7 8 8 8 8 8 8 8 8 8 7 6 7 7 7 7 9 8 8 7 7 7 5 7 7 7
2 5 1 0 4 3 3 1 1 1 4 11 6 3 2 5 3 3 4 3 5 4 8 8 6 6 5 6 9 4 6 8 8 5 4 6 7 4 4 5 5 4 5 6 6 6 7 9 10 11 10 5 4 5 4 5 9 10 7 5 6 7 8 9 9 8 8 7 7 7 7 7 6 6 6 7 7 8 8 10 9 8 7 7 7 7
6 4 5 7 2 8 9 7 10 10 6 10 14 7 3 3 4 3 3 4 2 5 5 2 7 9 10 9 9 10 7 9 9 6 6 5 7 6 6 7 5 5 7 8 6 7 8 9 10 9 9 8 3 5 5 5 4 5 7 7 7 7 8 8 8 7 7 7 6 6 7 8 7 6 6 6 5 6 7 7 7 7 8 8 8 8
6 6 8 7 4 12 10 7 4 5 3 7 9 10 7 5 4 4 3 2 2 3 4 4 4 4 5 7 7 10 9 8 10 10 8 6 7 7 6 7 7 6 4 4 4 5 7 9 9 8 7 8 4 4 5 5 5 5 6 5 6 7 7 7 7 8 7 7 7 7 7 7 9 9 7 7 7 7 6 6 7 9 10 11 10 9
2 8 6 6 10 7 3 3 4 2 4 9 9 7 5 4 6 6 4 4 4 5 3 3 2 5 9 9 7 9 11 7 7 11 11 7 6 6 6 6 5 6 6 7 3 4 7 7 8 7 7 6 4 5 5 5 3 3 5 6 6 7 8 7 6 6 6 6 6 6 5 6 7 7 7 6 6 5 6 9 9 9 7 4 6 8
7 7 2 5 4 6 12 15 10 5 7 10 10 12 12 9 6 6 4 5 6 7 7 9 3 2 2 4 9 12 13 10 6 7 10 10 9 8 7 7 6 7 5 4 4 5 6 6 9 9 8 5 4 5 6 5 4 3 3 5 5 7 8 8 7 6 6 6 6 6 6 5 6 5 6 7 7 6 1 2 4 5 5 5 4 9
10 9 9 10 10 13 17 13 7 13 10 5 10 12 11 8 8 10 11 10 9 7 10 11 8 4 4 4 4 7 11 12 11 7 8 7 8 7 8 11 11 8 7 6 9 6 8 6 7 8 8 6 5 6 6 5 4 4 3 4 4 6 7 8 7 6 6 6 6 7 7 6 6 6 6 6 7 6 6 2 0 2 6 7 6 7
Wind_Direction
63 137 178 206 220 207 204 196 199 160 136 98 95 116 203 212 277 276 271 258 235 4 234 232 240 253 265 264 268 266 167 229 256 259 253 251 241 234 236 235 234 231 238 157 184 180 186 190 190 180 186 195 183 182 173 162 162 160 152 143 137 143 139 143 144 142 133 122 105 75 61 100 94 92 84 70 59 42 60 50 50 73 74 97 100 102
61 136 244 226 223 190 207 175 96 94 60 145 119 173 272 161 255 228 211 28 305 172 294 284 265 262 262 268 267 268 133 240 234 242 249 249 239 236 233 238 232 234 97 153 179 195 186 191 193 177 190 187 186 188 172 169 169 163 157 155 149 142 145 155 159 147 137 125 147 147 145 125 112 105 69 102 69 58 63 54 42 42 75 95 104 110
116 202 238 231 108 126 74 139 137 151 138 65 185 187 321 266 250 280 276 316 287 122 261 295 267 261 265 266 268 258 242 242 231 226 240 240 246 240 238 240 239 215 220 183 204 188 194 191 192 183 189 194 192 179 178 174 167 166 163 159 156 161 152 154 144 136 125 106 91 108 125 127 109 55 43 56 75 69 71 57 46 37 64 97 100 105
268 281 247 156 134 112 56 97 123 93 78 154 99 129 232 232 32 299 298 1 183 180 261 14 293 276 272 258 252 248 236 249 250 247 251 245 246 244 237 229 226 225 214 205 196 197 192 192 192 186 191 191 183 179 184 179 173 169 168 162 161 164 155 147 135 111 98 90 84 78 86 79 77 119 103 90 73 64 64 58 40 40 63 80 100 96
201 210 332 147 155 164 160 129 128 150 231 255 186 200 228 205 232 190 253 297 271 333 53 299 279 280 247 262 269 271 308 278 262 261 261 256 238 248 264 259 220 223 209 208 196 195 189 193 197 191 185 178 188 188 186 180 177 171 169 164 163 160 156 144 137 132 130 112 97 94 88 91 95 80 87 91 56 48 65 80 63 42 47 75 92 91
273 256 97 84 126 133 115 146 197 154 232 296 229 200 214 215 234 274 352 7 1 338 345 59 326 299 280 267 253 279 323 289 257 249 255 255 251 241 245 244 236 230 208 202 198 195 193 194 185 186 184 189 192 192 188 178 174 168 166 163 163 156 149 144 142 145 149 143 140 138 132 125 111 118 139 138 143 147 130 119 97 55 50 70 84 85
215 115 151 168 150 174 169 184 228 157 196 185 272 198 212 213 204 218 258 68 298 253 309 31 222 284 330 291 263 275 264 258 268 249 258 266 262 242 239 243 231 220 215 213 199 185 184 191 188 191 191 193 192 190 173 175 175 169 165 166 163 160 153 149 146 149 150 147 159 160 158 152 154 143 109 60 61 106 109 98 89 81 59 51 95 86
120 199 111 84 116 147 171 218 235 175 145 234 252 147 168 157 192 222 162 180 240 263 289 31 142 270 294 267 285 239 259 269 283 272 265 261 257 251 244 243 233 219 208 197 197 191 191 187 188 191 193 189 190 171 168 175 172 173 168 164 162 156 154 157 154 158 165 160 165 159 155 149 148 150 144 134 106 90 104 107 98 93 75 64 72 102
153 187 179 176 157 158 205 206 186 162 151 219 237 133 142 166 184 125 146 178 192 22 283 236 193 295 250 264 311 322 263 276 266 265 262 254 259 262 256 244 236 221 206 193 191 192 190 192 196 194 187 185 171 168 176 179 174 166 162 161 158 158 157 158 160 160 166 168 166 156 146 124 80 100 118 120 108 119 118 111 104 103 102 87 69 81
320 171 209 177 157 213 215 280 165 165 197 221 121 89 83 79 66 111 95 111 330 34 262 173 174 199 275 205 231 329 220 260 258 264 264 263 252 254 260 265 245 215 200 199 200 193 195 196 194 189 174 170 178 173 169 165 162 167 161 163 163 163 160 160 163 163 164 166 157 151 162 134 123 116 100 127 128 131 137 131 129 130 121 114 103 102
255 287 189 151 200 200 123 41 156 166 108 133 98 76 27 43 37 28 68 90 53 251 259 182 196 165 280 190 183 203 221 199 237 266 272 295 299 273 254 259 244 206 197 196 194 192 189 178 174 169 179 180 169 166 167 169 172 167 167 164 169 167 159 163 167 165 169 165 167 167 162 146 136 139 137 134 134 137 143 150 148 145 137 132 138 139
346 20 156 246 90 114 98 76 21 88 129 123 101 121 73 349 12 34 340 41 137 264 331 314 185 180 213 288 280 249 273 238 221 246 263 283 278 277 281 271 241 205 197 186 179 176 162 156 172 177 182 178 173 170 174 174 172 172 170 167 167 166 165 166 167 169 168 167 170 169 165 154 148 150 157 157 157 164 159 164 153 147 133 146 153 141
274 226 233 320 209 137 114 85 8 30 353 84 92 88 111 250 32 305 21 253 200 231 213 338 116 344 238 244 269 277 257 257 232 228 247 251 268 272 272 264 241 203 177 180 183 173 179 180 179 185 185 176 178 182 178 178 176 172 171 172 170 173 169 170 165 173 168 167 174 169 168 165 154 158 159 161 159 165 164 164 156 157 158 160 152 162
272 296 244 240 75 236 146 149 170 97 214 134 157 147 104 199 188 258 264 269 310 291 267 218 184 254 299 275 227 244 248 233 245 240 232 234 246 253 266 270 228 208 198 194 186 189 190 188 187 187 184 184 182 182 180 177 176 176 175 175 175 174 170 168 168 172 170 176 174 173 168 161 161 164 162 162 162 165 163 166 163 164 164 166 163 158
245 301 245 138 245 175 181 204 179 156 162 204 99 163 182 145 164 212 203 221 229 228 271 280 60 232 129 241 248 235 260 297 262 262 244 245 249 255 266 277 244 221 215 200 200 200 196 193 187 187 187 186 184 182 179 177 180 176 177 178 178 171 177 172 172 169 175 173 169 173 171 163 166 165 165 164 162 159 159 166 163 162 164 163 160 157
210 234 268 218 310 154 188 208 113 94 78 210 164 68 103 228 122 241 209 173 273 336 332 214 210 193 188 259 280 236 273 286 265 264 283 275 265 246 264 245 234 219 212 208 212 209 204 194 189 188 192 189 184 183 182 181 179 180 183 181 182 176 173 176 172 173 172 170 165 171 168 170 165 163 155 147 149 153 154 162 166 163 164 154 142 137
55 269 287 329 53 180 186 115 180 146 199 209 107 205 213 150 144 69 30 55 70 57 257 136 283 281 296 285 250 252 244 259 280 290 276 258 264 330 279 260 216 209 213 213 214 207 199 192 196 194 190 187 187 186 186 184 183 184 178 179 179 176 173 175 177 171 170 166 165 174 169 163 163 164 167 165 162 160 156 158 163 160 157 138 147 148
154 236 305 92 213 310 137 229 104 27 142 100 197 230 150 133 104 146 221 351 72 208 271 107 247 296 31 285 345 337 250 257 250 254 247 250 300 293 265 259 192 206 217 219 220 216 204 199 192 190 194 196 194 189 185 185 182 184 181 179 177 173 175 177 175 174 171 168 172 169 169 170 171 169 169 164 160 157 154 160 156 147 151 165 160 155
142 264 310 312 200 300 0 132 35 348 24 144 196 194 123 230 241 285 91 259 261 258 272 286 265 259 191 252 139 256 216 244 242 236 245 269 264 253 258 265 190 220 229 216 211 204 197 192 193 190 193 192 195 194 191 182 178 179 180 181 180 179 177 173 174 174 172 173 171 172 173 171 168 169 162 158 157 157 162 167 166 166 159 144 154 155
89 179 287 354 137 304 18 121 200 193 4 62 76 129 107 101 185 135 199 180 129 259 45 287 38 273 171 225 188 228 217 221 234 249 233 236 242 245 258 248 207 217 219 216 209 205 198 194 191 190 189 189 190 188 187 181 177 182 179 176 180 174 174 171 174 173 177 179 172 170 164 169 167 162 162 163 162 169 174 171 164 159 158 166 157 158
215 152 246 323 324 92 180 202 211 166 163 163 141 204 185 334 241 108 15 143 180 178 185 287 307 269 227 203 180 213 220 208 194 217 231 237 244 234 227 215 219 218 216 215 209 201 196 192 188 190 192 191 189 190 184 183 184 182 178 182 177 173 176 182 180 176 177 168 174 166 170 168 166 167 163 164 174 174 173 165 160 161 153 139 166 155
194 169 205 143 24 216 236 256 215 190 188 176 179 194 190 147 167 165 251 56 112 117 241 158 259 276 258 181 197 198 233 201 199 207 227 238 239 210 231 229 212 210 220 212 205 196 193 186 183 183 180 179 181 189 187 186 181 184 187 183 175 174 180 179 182 183 172 175 170 172 173 172 167 164 165 169 172 176 170 163 162 153 141 162 155 157
176 152 120 195 208 207 199 152 212 243 271 223 192 230 192 196 164 161 194 244 28 256 94 179 88 269 205 199 204 214 174 260 200 192 230 244 252 254 255 247 229 209 205 208 196 194 190 183 182 183 185 187 191 191 187 186 188 187 185 180 180 179 185 183 182 178 173 175 174 176 172 167 170 165 169 170 174 174 166 160 148 143 152 156 155 154
74 128 185 273 354 320 311 300 32 107 125 280 263 103 139 196 181 174 175 180 173 162 172 262 355 265 20 25 216 265 249 237 279 223 226 248 273 259 237 213 219 213 220 198 179 181 186 179 174 177 185 187 192 192 193 193 189 186 187 185 177 186 182 180 181 178 174 176 176 172 168 174 168 168 171 174 172 169 162 154 146 143 152 157 157 159
152 236 199 205 289 324 338 342 315 359 73 217 195 215 204 191 179 165 96 81 180 207 192 153 226 258 260 323 323 320 295 278 242 242 229 253 263 270 243 217 219 204 174 180 182 184 179 178 188 192 187 192 194 192 192 193 191 188 190 186 186 187 180 181 176 175 177 177 173 173 173 173 170 172 173 171 165 167 156 155 151 155 161 156 162 162
185 163 183 201 213 222 227 211 222 207 194 216 220 204 202 180 185 121 217 188 220 231 174 207 242 251 47 322 300 278 297 284 258 234 247 231 245 256 253 217 196 181 193 192 184 179 196 195 197 199 195 193 195 193 192 195 193 192 191 192 186 181 178 181 174 177 173 177 176 175 177 175 172 176 172 167 164 166 163 160 159 158 158 163 163 160
188 191 191 195 205 225 234 242 43 113 106 187 217 179 199 202 198 203 201 195 213 226 172 222 228 254 247 261 254 253 256 238 243 251 221 245 248 244 239 242 211 193 192 193 192 198 195 201 205 205 199 197 194 195 194 193 193 193 192 191 189 184 177 176 174 175 176 178 178 176 181 177 176 172 168 166 164 161 163 164 159 161 166 168 168 167
80 197 209 207 207 220 233 231 198 146 173 204 197 197 197 192 192 194 200 220 216 140 249 230 230 247 259 236 230 246 252 261 264 267 266 254 256 240 234 221 223 230 218 190 195 196 204 207 204 205 203 199 199 195 197 194 195 194 192 191 186 183 177 176 175 176 177 176 181 182 181 176 168 168 167 164 160 164 165 161 161 165 161 161 171 175
164 212 219 212 226 227 229 235 165 198 190 193 200 193 192 197 189 197 218 229 210 205 227 245 211 224 251 251 225 219 214 222 230 233 231 224 238 231 190 199 209 219 210 207 214 207 206 206 205 201 201 203 195 197 197 195 194 195 198 193 187 182 184 174 173 176 178 178 183 186 176 165 164 166 165 166 163 165 166 164 160 157 158 171 175 173
148 240 193 203 221 229 237 236 180 196 215 210 202 200 198 189 196 203 216 221 219 220 237 250 254 238 245 255 216 220 200 211 225 217 156 210 238 232 205 220 224 224 214 219 218 214 211 210 203 202 197 197 200 198 197 198 196 194 193 193 187 186 182 168 179 177 180 183 186 178 169 167 167 168 167 167 172 171 163 161 160 161 165 174 171 161
180 218 203 191 223 235 239 243 208 205 205 220 224 213 203 201 205 208 215 224 224 237 241 250 255 261 253 244 228 221 201 215 250 254 245 241 243 241 228 225 229 230 228 231 231 221 214 208 205 198 198 203 200 200 198 198 193 185 192 195 190 185 179 175 177 182 182 185 182 174 168 169 173 168 172 175 168 163 164 164 164 164 164 165 168 169
170 267 13 145 225 239 247 245 236 199 222 234 228 208 216 211 213 214 218 216 204 217 227 238 252 254 260 124 207 185 182 200 218 236 237 242 236 232 229 230 228 232 233 231 230 220 208 207 203 201 204 204 201 198 197 194 189 184 194 188 185 180 169 178 183 186 187 184 176 173 173 175 170 171 175 170 170 167 166 162 162 167 169 167 169 176
174 176 215 188 233 234 247 242 239 151 206 247 235 226 217 217 213 213 221 218 215 211 217 223 234 239 250 171 140 233 195 213 219 231 243 245 236 218 224 227 228 233 233 232 228 216 211 208 206 204 204 199 200 199 198 182 179 194 185 179 182 165 175 185 186 186 186 181 178 178 175 172 172 175 173 172 167 166 165 167 168 168 171 179 176 159
170 195 215 198 232 235 244 248 159 158 215 227 226 226 218 217 202 206 217 220 225 204 219 223 237 251 259 247 230 238 209 223 219 227 224 233 242 231 232 231 234 233 237 239 233 222 218 210 208 206 203 202 199 194 184 183 188 184 175 171 164 174 178 181 188 187 184 177 180 175 172 169 170 173 171 167 167 166 170 172 180 177 172 163 160 176
192 196 218 200 227 228 245 88 186 222 229 231 272 343 218 218 206 211 225 225 223 220 236 252 255 254 249 251 242 241 235 234 241 245 250 241 234 240 230 230 229 229 232 236 235 223 213 205 202 201 202 199 182 172 168 179 173 155 160 163 167 173 175 180 177 182 179 180 177 171 168 168 170 171 171 175 173 170 172 174 172 175 175 172 179 182
201 201 203 221 216 236 208 206 237 232 233 347 276 227 347 211 216 212 237 240 231 219 214 231 239 245 251 251 248 241 233 249 291 260 244 240 214 222 235 235 232 222 230 230 225 224 200 194 198 197 197 171 166 174 175 175 163 162 168 163 170 172 175 174 179 183 181 183 181 178 175 173 174 175 175 172 171 173 176 177 178 177 174 176 182 186
198 204 192 231 187 226 211 220 236 307 329 270 267 231 185 186 171 189 225 239 227 220 215 222 234 240 247 254 253 250 204 349 286 269 210 191 222 227 224 235 225 222 226 241 216 224 206 203 197 187 157 162 168 164 173 160 158 156 149 159 166 164 170 173 182 187 187 186 180 180 176 175 174 174 170 172 174 178 177 176 178 176 167 178 186 188
191 204 184 213 218 207 224 240 237 234 241 245 235 242 119 185 181 193 203 255 250 224 222 220 229 239 244 252 254 240 90 284 274 266 215 189 215 221 234 247 245 230 231 232 223 219 177 165 141 144 155 159 165 165 152 151 154 152 158 167 166 169 176 182 191 186 181 181 180 180 176 175 173 172 172 171 178 179 181 177 179 183 176 185 188 198
209 209 189 204 203 182 218 231 227 226 238 230 256 159 187 159 155 123 174 242 249 231 219 211 225 241 240 240 247 148 170 233 251 260 201 196 206 195 211 224 222 237 236 205 180 169 162 157 152 149 143 150 155 157 152 153 155 159 167 170 171 174 180 190 188 181 185 184 174 166 162 164 166 170 172 178 183 180 182 186 188 184 180 195 196 204
200 210 199 220 214 206 213 227 233 217 242 243 214 220 178 126 106 113 192 241 251 115 168 163 200 228 236 233 228 153 201 235 247 258 126 185 178 174 182 183 156 112 80 73 99 151 146 134 119 131 148 160 163 152 153 153 158 165 168 173 170 180 191 187 181 178 166 155 159 164 167 170 173 177 179 183 182 182 188 178 167 171 179 188 193 193
200 210 202 212 214 222 224 242 262 268 272 241 193 165 145 134 117 154 215 236 156 169 170 170 199 215 227 229 192 197 216 220 239 347 95 110 114 86 43 64 120 146 150 151 145 136 133 142 146 154 159 154 146 148 149 153 155 167 167 166 176 188 177 162 157 159 160 161 162 167 172 173 176 179 183 182 180 174 168 167 175 172 178 186 188 188
203 199 214 209 222 223 226 232 237 264 237 163 15 149 163 114 199 218 228 155 152 173 192 191 197 217 218 212 189 211 226 75 134 104 73 72 105 110 89 100 91 68 43 75 114 121 116 111 107 107 104 125 141 142 148 148 154 156 157 164 181 179 163 155 153 154 156 160 166 167 169 172 175 177 174 165 154 159 175 180 175 178 176 172 175 185
182 183 195 205 207 241 224 239 224 235 247 125 116 81 298 198 230 186 140 249 183 191 175 217 213 228 168 215 214 208 105 90 116 134 121 108 126 136 140 132 130 130 129 116 99 99 120 115 109 108 113 121 130 138 144 146 149 153 154 173 178 146 140 144 148 153 156 158 160 167 170 172 169 170 163 164 168 168 173 164 163 164 161 164 174 186
172 193 180 213 179 207 205 216 216 218 116 157 143 178 205 214 183 181 141 200 212 170 190 193 225 210 200 198 185 169 158 131 122 113 123 112 117 124 110 111 100 103 87 71 98 120 111 106 105 101 93 101 120 136 144 148 145 149 160 165 134 135 136 143 149 147 151 159 165 164 167 169 167 161 159 161 160 164 159 164 167 165 172 172 177 186
193 199 178 203 179 200 207 226 203 180 171 198 191 203 209 208 149 184 163 174 169 227 182 181 215 206 197 179 162 158 150 207 168 176 150 169 151 151 148 150 148 140 132 122 118 114 120 127 125 114 96 82 100 114 132 139 142 148 151 154 142 144 144 141 141 144 153 160 162 164 161 153 157 161 162 161 159 162 165 163 159 167 177 172 184 189
270 201 42 88 252 258 308 212 173 287 226 218 241 187 238 217 204 152 165 184 247 199 177 186 189 173 172 161 143 198 181 163 152 156 137 139 149 128 123 111 99 105 107 109 102 108 119 113 110 113 108 78 75 95 100 122 142 149 165 147 138 137 135 138 139 150 158 156 156 154 146 147 151 157 162 162 169 173 172 169 173 177 175 179 193 193
229 167 174 210 189 180 237 202 202 220 218 213 214 215 225 262 226 168 187 215 220 159 192 226 175 172 171 170 170 167 160 163 152 151 147 141 141 152 140 135 127 132 136 121 141 135 123 119 111 112 115 107 71 95 93 99 82 122 135 140 141 136 139 141 146 146 148 151 142 139 148 152 160 158 158 163 164 167 164 165 170 173 175 185 192 198
267 170 200 197 180 202 225 218 255 244 239 241 225 211 225 228 219 210 209 181 187 184 165 183 134 141 147 171 171 151 160 165 153 152 159 158 154 148 149 137 135 103 72 100 110 102 95 101 112 112 107 106 92 86 89 84 98 118 123 129 133 133 132 136 145 150 153 149 147 153 158 159 160 159 164 173 169 168 168 173 175 181 190 190 192 192
166 123 218 177 217 228 300 294 243 325 277 253 246 255 251 206 187 204 187 153 156 154 124 133 192 175 178 175 156 145 146 181 174 160 151 153 147 149 147 141 118 115 117 109 93 97 117 124 115 120 116 116 113 100 93 90 82 109 126 133 134 135 131 135 133 132 136 140 142 151 159 155 162 168 165 170 178 189 180 177 186 196 211 216 185 197
113 194 196 173 257 228 219 226 165 170 239 235 219 216 216 213 198 181 145 148 164 162 165 159 150 120 174 172 165 159 157 163 169 158 155 158 161 150 141 134 127 119 108 90 94 93 94 108 125 127 122 128 126 117 112 104 91 83 112 127 140 134 131 134 128 127 139 142 143 145 145 145 150 153 157 163 172 168 196 354 181 201 191 212 191 202
203 195 166 203 206 226 229 233 160 215 243 226 202 203 195 184 170 175 193 186 188 184 169 150 138 137 160 184 199 171 154 159 165 157 143 154 162 158 150 146 141 138 133 138 114 108 111 119 120 118 121 136 133 122 121 110 104 95 95 126 134 129 131 131 127 125 134 140 147 155 151 146 146 153 151 155 161 166 174 204 337 230 212 198 196 204